Weather in Polunochnoye

Russia / Sverdlovsk Oblast     60°52′03″N   60°25′31″E
temp.,
°C
wind,
m/s
gust,
m/s
humid.,
%
clouds,
%
prec.,
mm/h
press.,
hPa
HPBL,
m
9 may, sun
sun923:00+12n3982100 0.4 1018250
02:00+10nnw2688100 0.0 1019172
05:00+9n378757 0.0 1020203
08:00+13nne357483 0.0 1020407
11:00+18ne235413 0.0 10201042
14:00+21ese34405 0.0 10191938
17:00+22se3436100 0.0 10192113
20:00+18e26535 0.1 1020126
10 may, mon
mon1023:00+13e116829 0.1 102111
02:00+11sse11813 0.0 102210
05:00+9se11876 0.0 102315
08:00+15s356245 0.0 1024332
11:00+20sse474570 0.0 1024942
14:00+22s573765 0.0 10242008
17:00+23s563420 0.0 10232237
20:00+19sse494464 0.0 1023364
11 may, tue
tue1123:00+14s31262100 0.1 1024306
02:00+13ssw2268100 0.0 102436
05:00+12wnw117291 0.0 102411
08:00+14nw1378100 0.4 1024175
11:00+14nnw248363 0.8 1026337
14:00+18wnw344764 0.2 10261484
17:00+18nw4534100 0.2 10271546
20:00+14nnw374365 0.0 1028404
12 may, wed
wed1223:00+10nw2254100 0.0 102956
02:00+10wsw2254100 0.0 102936
05:00+11wsw2557100 0.0 1029151
08:00+12wnw2758100 0.0 1029387
11:00+18nw375090 0.0 10281314
14:00+19nw4952100 0.0 10271615
17:00+20nw475090 0.0 10271740
20:00+18w126280 0.0 102724
13 may, thu
thu1323:00+14w2375100 0.0 102648
02:00+13w29785 0.0 1026170
05:00+13w310785 0.0 1026194
08:00+19wnw49555 0.0 1027767
11:00+22nw583927 0.0 10272258
14:00+24nw583214 0.0 10262556
17:00+24nnw57325 0.0 10272442
20:00+20nnw22460 0.0 102727